NOAA 16 DEB, 42362

Orbit data source: Space-Track

NOAA 16 DEB, 42362 is space debris in SSO originally from a launch on Thu, 21 Sep 2000 UTC launched from the Air Force Western Test Range (AFWTR). Debris objects in space refer to the collection of defunct objects orbiting the Earth. Examples of debris include non-operational satellites, rocket bodies, and fragments generated from explosions, collisions, or faulty payload assembly.

Loading next visibility...
Identifier
42362, 2000-055RE
Orbit
SSO
Country
Flag of USUS
Related business
Manufacturer
Unknown
Mission
Spacecraft
Bus & Motor
Unknown
Mass
Unknown
Launch date (UTC)
2000-09-21 (26 years ago)
Launch vehicle
Unknown
Launch site
Air Force Western Test Range (AFWTR)
Object type
Payload
Rocket body
Debris
Shape & HBR
Unknown shape, 0.1 m
Radar Cross Section
Small (<0.1 m²)

Expand to show TLE details & history
Last TLE update: 2 days ago

TLE from 2 days ago
0 NOAA 16 DEB
1 42362U 00055RE  26125.09203346  .00005779  00000-0  29778-2 0  9993
2 42362  98.8525  87.8735 0092396 303.1590  56.0744 14.13340523521655
Epoch: 2026-05-05T02:12Z
TLE epoch observation values (Epoch: 2026-05-05T02:12:31.690Z)
Latitude
-0.00005°
Longitude
-168.23038°
Altitude
814.022 km
Speed
7.465 km/s
True Right ascension
05h 51m 29s
True Declination
0° 00' 00"
Sunlit
Object was in daylight at epoch
Visualization orbit readout
Latitude
Unknown
Longitude
Unknown
Altitude
Unknown
Speed
Unknown
Apparent Right ascension
Unknown
Apparent Declination
Unknown
Sunlit
N/A
Visualization observer readout
Local Sidereal Time
02:51:54
Azimuth
Unknown
Elevation
Unknown
Doppler factor
Unknown
Orbital elements
Apogee altitude
911.877 km
Perigee altitude
778.397 km
Semi-major axis
7,223.274 km
Eccentricity
0.00924
Inclination
98.8525°
RAAN
87.8735°
Arg. of periapsis
303.159°
True anomaly
56.9586°
Mean anomaly
56.0744°
Eccentric anomaly
56.51593°
Mean motion
3.53543 °/min
Orbital period
101.83 mins
BSTAR
0.0029778
Loading maneuver chart data...
Computing Atmospheric mass density...
Loading historical data...
Loading historical data...
Loading historical data...
Loading historical data...
Loading historical data...
Loading historical data...
Loading historical data...

Documentation

Showing up to 5 results
|